CAPE
0 0 0 0 0 0 0 0 92 152 170 21 10 28 96 77 245 1578 889 719 668 966 1876 2377 2654 2737 2599 2297 2056 1828 1638 1816 1587 1329 1285 1410 1663 1842 1923 1937 1851 1598 1629 1561 1405 1192 865 595 578
0 0 0 0 0 0 0 0 95 111 43 0 0 7 10 0 18 1562 1136 822 636 695 1147 2170 2650 2676 2570 2292 2002 1768 1746 1948 1781 1426 1495 1515 1638 1819 1920 1977 1984 1871 1685 1035 1060 1009 894 734 560
0 0 0 0 0 0 0 0 3 56 17 100 19 581 588 395 130 1880 1123 904 370 452 1135 2337 2572 2545 2474 2196 1938 1790 1819 1975 1849 1533 1628 1637 1663 1703 1801 1873 1871 1816 1559 1147 913 802 801 602 509
0 0 0 0 0 0 0 0 0 0 72 475 500 1698 1857 1891 1902 1900 1257 760 506 746 1236 2294 2436 2425 2432 2235 1968 1815 1841 1926 1845 1697 1697 1749 1744 1653 1725 1833 1763 1534 1329 1181 936 668 341 238 196
0 0 0 0 0 0 0 0 0 0 19 1060 1439 1619 1890 1892 1933 2006 1484 938 943 775 1219 1788 2295 2345 2392 2294 2217 2070 1932 1845 1874 1866 1758 1734 1738 1601 1521 1571 1501 1446 1189 1107 1048 889 536 224 149
0 0 0 0 0 0 0 0 0 0 0 311 1572 1669 1551 1684 1885 2000 1695 1275 1313 650 812 1115 1913 2102 2151 2206 2230 2153 2014 1938 1951 1871 1839 1801 1675 1594 1559 1493 1487 1526 1351 1262 1169 946 603 400 384
0 0 0 0 0 0 0 0 0 0 0 0 773 1358 1307 1577 1436 1642 1501 2097 1353 446 612 1019 1407 1577 1923 1989 2032 2046 2024 2065 2052 1988 1921 1842 1722 1570 1532 1498 1511 1574 1537 1432 1282 1187 1065 863 699
0 0 0 3 0 0 0 0 0 0 0 0 0 484 984 873 999 861 1188 2145 977 638 591 567 925 1175 1255 1501 1935 1930 1944 1914 1815 1785 1782 1724 1640 1510 1454 1269 1414 1577 1533 1388 1225 1220 1214 1126 980
0 0 0 6 24 0 0 0 0 0 0 0 0 0 0 2 317 536 924 1607 1199 910 655 502 685 690 630 828 1356 1742 1720 1757 1617 1633 1632 1289 809 948 1021 1118 1195 1532 1464 1395 1379 1419 1354 1291 1313
0 0 0 8 0 0 0 0 0 0 0 0 0 0 0 0 0 0 317 902 1517 1199 880 862 703 609 413 755 1053 1016 1060 1077 946 880 1045 532 187 185 267 399 826 1164 1414 1436 1554 1567 1517 1587 997
0 0 0 8 0 0 0 0 0 0 0 0 0 0 0 0 0 0 0 0 659 1611 1367 1316 1003 737 595 901 538 488 561 484 423 313 463 173 121 112 258 214 395 711 1231 1123 1072 1024 1281 1011 583
0 0 2 0 0 0 0 0 0 0 0 0 0 0 0 0 0 0 0 0 195 1352 1649 1825 1765 1804 1357 833 461 595 450 310 259 295 294 105 60 680 630 498 617 623 745 753 735 698 741 817 795
0 0 0 0 0 0 0 0 0 0 0 0 0 0 0 0 0 0 0 0 0 257 1335 1583 1593 1873 2133 1973 2142 1285 1012 631 504 436 652 1079 834 651 638 476 377 289 568 495 68 46 201 301 209
0 0 0 0 0 0 0 0 0 0 0 0 0 0 0 0 0 0 0 0 0 0 0 540 1835 1849 1926 2562 1961 2268 1424 1615 1577 1150 1146 929 743 605 866 916 1209 1113 841 658 688 414 267 148 3
0 0 0 0 0 0 0 0 0 0 0 0 0 0 0 0 0 0 0 0 0 0 0 988 1439 2006 2041 2459 2614 1920 1899 1315 757 892 229 556 275 653 435 1079 316 19 0 0 0 0 0 0 0
0 0 0 0 0 0 0 0 0 0 0 0 0 0 0 0 0 0 0 0 0 0 0 0 2020 2309 2298 3239 3070 2642 2388 1908 963 986 610 336 0 133 89 298 0 0 0 0 0 0 0 0 0
0 0 0 0 0 0 0 0 0 0 0 0 0 0 0 0 0 0 0 0 0 0 0 1 2614 2792 2808 2900 2894 2905 2632 2124 1008 714 850 540 360 449 0 0 0 0 0 0 0 0 0 0 0
0 0 0 0 0 0 0 0 0 0 0 0 0 0 0 0 0 0 0 0 0 0 0 0 636 2813 3024 2770 2615 2847 2507 1587 1130 729 583 574 156 2 18 0 0 0 0 0 0 0 0 0 0
0 0 0 0 0 0 0 0 0 0 0 0 0 0 0 0 0 0 0 22 132 251 361 182 581 2366 2968 2417 2182 2180 1173 292 896 931 811 0 0 0 0 0 24 0 0 0 0 0 0 0 0
0 0 0 0 0 0 0 0 0 0 0 0 0 0 0 0 0 0 3 22 162 421 698 786 1312 1256 748 525 976 568 459 122 13 2 0 0 0 1 7 0 2 0 0 0 0 0 0 0 0
0 0 0 0 0 0 0 0 0 0 0 0 0 0 0 0 0 0 3 0 113 244 308 109 2 85 0 1 52 99 29 46 0 26 18 0 0 0 0 0 1 0 0 0 0 0 0 0 0
0 0 0 0 0 0 0 0 0 0 0 0 0 0 0 0 0 0 0 65 107 46 1 0 0 0 0 0 0 0 27 104 41 71 0 0 0 0 0 0 0 0 0 0 0 0 0 0 0
0 0 0 0 0 0 0 0 0 0 0 1 0 1 0 0 0 0 1 22 38 1 0 0 0 0 0 0 0 0 0 0 3 0 0 0 0 0 0 0 0 0 0 0 0 0 0 0 0
0 0 0 0 0 0 0 0 0 0 1 5 3 8 2 64 9 0 6 0 0 0 33 45 0 0 0 0 0 0 0 0 0 0 0 2 0 0 0 0 0 0 0 0 0 0 0 0 0
0 0 0 0 0 0 0 0 0 0 0 0 0 0 0 0 0 0 0 0 0 0 0 0 0 0 0 0 3 2 0 0 0 0 0 0 0 0 0 0 0 0 0 0 0 0 0 0 0
0 0 0 0 0 0 0 0 0 0 0 0 0 0 0 0 0 0 0 0 0 0 0 0 0 0 0 0 0 6 17 0 2 32 18 4 8 7 3 0 0 0 0 0 0 0 0 0 0
0 0 0 0 0 0 0 0 0 0 0 0 0 0 0 0 0 0 0 0 0 0 0 0 0 0 0 0 0 0 23 41 48 100 102 19 22 15 5 7 2 0 0 0 0 0 0 0 0
0 0 0 0 0 0 0 0 0 0 0 0 0 0 0 0 0 0 0 0 0 0 0 0 0 0 0 0 0 0 0 0 1 60 72 89 107 113 94 15 0 0 0 0 0 0 0 0 0
0 0 0 0 0 0 0 0 0 0 0 0 0 0 0 0 0 0 0 0 0 0 0 0 0 0 0 0 0 0 0 0 0 1 3 1 3 9 42 37 14 0 0 0 0 0 0 0 2
0 0 0 0 0 0 0 0 0 0 0 0 0 0 0 0 0 0 0 0 0 0 0 0 0 0 0 0 0 0 0 0 0 0 1 0 3 5 3 3 5 2 0 0 0 0 0 9 27
CIN
-0 -0 -0 -0 -0 -0 -0 -0 -62 -164 -171 -231 -304 -510 -392 -285 -209 -84 -237 -363 -514 -494 -299 -195 -138 -86 -72 -92 -112 -135 -161 -111 -136 -173 -146 -81 -25 -0 -0 -0 -0 -2 -2 -5 -10 -22 -53 -104 -106
-0 -0 -0 -0 -0 -0 -0 -0 -104 -146 -251 -0 -0 -272 -152 -0 -456 -185 -236 -362 -545 -551 -471 -251 -144 -110 -92 -110 -131 -162 -151 -98 -110 -150 -102 -61 -28 -4 -0 -0 -0 -0 -0 -36 -34 -38 -49 -70 -113
-0 -0 -0 -0 -0 -0 -0 -0 -5 -126 -235 -178 -197 -146 -233 -272 -414 -127 -302 -391 -562 -588 -473 -233 -162 -144 -119 -134 -165 -168 -146 -95 -90 -131 -85 -58 -29 -10 -0 -0 -0 -0 -0 -19 -48 -71 -74 -116 -136
-0 -0 -0 -0 -0 -0 -0 -0 -0 -1 -124 -93 -126 -69 -95 -118 -138 -165 -272 -367 -483 -533 -468 -234 -177 -164 -125 -128 -160 -163 -139 -106 -97 -106 -79 -43 -25 -18 -3 -0 -0 -0 -2 -12 -51 -115 -235 -278 -287
-0 -0 -0 -0 -0 -0 -0 -0 -0 -0 -31 -45 -83 -83 -90 -121 -144 -200 -258 -329 -408 -557 -457 -312 -180 -162 -129 -110 -103 -109 -113 -113 -97 -86 -75 -62 -40 -38 -32 -10 -9 -1 -20 -31 -42 -71 -156 -299 -349
-0 -0 -0 -0 -0 -0 -0 -0 -0 -0 -0 -13 -63 -70 -73 -88 -104 -170 -236 -323 -428 -576 -547 -423 -238 -186 -156 -123 -104 -99 -101 -92 -77 -69 -65 -50 -51 -51 -43 -34 -20 -5 -18 -26 -34 -71 -137 -208 -215
-0 -0 -0 -0 -0 -0 -0 -0 -0 -0 -0 -0 -43 -52 -52 -43 -76 -109 -173 -277 -380 -602 -628 -523 -383 -302 -197 -155 -127 -106 -88 -67 -56 -51 -41 -41 -40 -55 -45 -37 -25 -6 -8 -10 -19 -26 -46 -87 -123
-0 -0 -0 -158 -25 -0 -0 -0 -0 -0 -0 -0 -0 -58 -44 -28 -42 -66 -78 -169 -366 -526 -597 -617 -529 -454 -376 -269 -148 -123 -102 -83 -71 -54 -41 -43 -37 -43 -32 -55 -25 -7 -10 -19 -30 -36 -44 -50 -70
-0 -0 -0 -201 -208 -0 -0 -0 -0 -0 -0 -0 -0 -0 -0 -51 -61 -62 -67 -153 -246 -345 -434 -533 -521 -540 -528 -444 -277 -175 -145 -104 -97 -70 -43 -65 -160 -103 -61 -51 -51 -34 -30 -28 -36 -39 -38 -45 -48
-0 -0 -0 -168 -94 -0 -0 -0 -0 -0 -0 -0 -0 -0 -0 -0 -0 -20 -48 -94 -181 -234 -307 -373 -435 -472 -514 -370 -389 -350 -293 -249 -230 -197 -114 -223 -338 -297 -186 -155 -95 -49 -34 -39 -41 -45 -35 -25 -85
-0 -0 -0 -85 -0 -0 -0 -0 -0 -0 -0 -0 -0 -0 -0 -0 -0 -0 -0 -0 -80 -143 -219 -233 -250 -303 -361 -316 -515 -487 -407 -413 -383 -349 -239 -364 -329 -328 -260 -282 -178 -112 -63 -70 -79 -90 -61 -84 -123
-0 -0 -26 -15 -0 -0 -0 -0 -0 -0 -0 -0 -0 -0 -0 -0 -0 -0 -0 -0 -217 -126 -123 -139 -151 -121 -162 -314 -440 -371 -382 -413 -391 -314 -266 -328 -358 -72 -109 -126 -102 -103 -115 -105 -64 -91 -96 -85 -82
-0 -0 -0 -0 -0 -0 -0 -0 -0 -0 -0 -0 -0 -0 -0 -0 -0 -0 -0 -0 -0 -191 -138 -112 -106 -124 -137 -116 -133 -149 -160 -201 -203 -182 -124 -87 -69 -75 -91 -109 -123 -155 -120 -125 -195 -234 -148 -106 -91
-0 -0 -0 -0 -0 -0 -0 -0 -0 -0 -0 -0 -0 -0 -0 -0 -0 -0 -0 -0 -0 -0 -0 -217 -127 -140 -146 -116 -105 -67 -84 -75 -71 -134 -75 -71 -100 -110 -67 -80 -83 -69 -87 -95 -66 -78 -93 -86 -87
-0 -0 -0 -0 -0 -0 -0 -0 -0 -0 -0 -0 -0 -0 -0 -0 -0 -0 -0 -0 -0 -0 -0 -176 -165 -148 -137 -123 -103 -128 -81 -113 -168 -171 -253 -161 -218 -56 -121 -89 -204 -336 -0 -0 -0 -0 -0 -0 -0
-0 -0 -0 -0 -0 -0 -0 -0 -0 -0 -0 -0 -0 -0 -0 -0 -0 -0 -0 -0 -0 -0 -0 -0 -68 -160 -156 -103 -82 -86 -80 -91 -189 -170 -191 -170 -0 -187 -239 -80 -0 -0 -0 -0 -0 -0 -0 -0 -0
-0 -0 -0 -0 -0 -0 -0 -0 -0 -0 -0 -0 -0 -0 -0 -0 -0 -0 -0 -0 -0 -0 -0 -250 -116 -114 -117 -110 -87 -60 -61 -66 -147 -128 -113 -148 -185 -110 -0 -0 -0 -0 -0 -0 -0 -0 -0 -0 -0
-0 -0 -0 -0 -0 -0 -0 -0 -0 -0 -0 -0 -0 -0 -0 -0 -0 -0 -0 -0 -0 -0 -0 -0 -256 -70 -75 -78 -66 -48 -50 -121 -135 -151 -141 -91 -199 -17 -228 -0 -0 -0 -0 -0 -0 -0 -0 -0 -0
-0 -0 -0 -0 -0 -0 -0 -0 -0 -0 -0 -0 -0 -0 -0 -0 -0 -0 -0 -423 -327 -299 -245 -243 -175 -57 -46 -61 -56 -42 -80 -212 -141 -131 -90 -0 -0 -0 -0 -0 -308 -0 -0 -0 -0 -0 -0 -0 -0
-0 -0 -0 -0 -0 -0 -0 -0 -0 -0 -0 -0 -0 -0 -0 -0 -0 -0 -103 -356 -233 -203 -168 -162 -91 -74 -126 -163 -135 -171 -177 -188 -171 -58 -0 -0 -0 -56 -306 -0 -237 -0 -0 -0 -0 -0 -0 -0 -0
-0 -0 -0 -0 -0 -0 -0 -0 -0 -0 -0 -0 -0 -0 -0 -0 -0 -0 -155 -0 -235 -205 -193 -273 -34 -246 -0 -9 -211 -214 -257 -221 -0 -265 -224 -0 -0 -0 -0 -0 -86 -0 -0 -0 -0 -0 -0 -0 -0
-0 -0 -0 -0 -0 -0 -0 -0 -0 -0 -0 -0 -0 -0 -0 -0 -0 -0 -0 -271 -215 -208 -14 -0 -0 -0 -0 -0 -0 -0 -25 -117 -132 -158 -9 -0 -0 -0 -0 -0 -0 -0 -0 -0 -0 -0 -0 -0 -0
-0 -0 -0 -0 -0 -0 -0 -0 -0 -0 -0 -131 -0 -170 -0 -0 -0 -0 -14 -272 -275 -19 -0 -0 -0 -0 -0 -0 -0 -0 -0 -0 -103 -0 -0 -0 -0 -0 -0 -0 -0 -0 -0 -0 -0 -0 -0 -0 -0
-0 -0 -0 -0 -0 -0 -0 -0 -0 -0 -33 -100 -92 -82 -61 -99 -63 -0 -74 -0 -0 -0 -184 -223 -0 -0 -0 -0 -0 -0 -0 -0 -0 -0 -0 -34 -0 -0 -0 -0 -0 -0 -0 -0 -0 -0 -0 -0 -0
-0 -0 -0 -0 -0 -0 -0 -0 -0 -0 -0 -0 -0 -0 -0 -0 -0 -0 -0 -0 -0 -0 -0 -0 -0 -0 -0 -9 -138 -59 -0 -0 -0 -0 -0 -0 -0 -0 -0 -0 -0 -0 -0 -0 -0 -0 -0 -0 -0
-0 -0 -0 -0 -0 -0 -0 -11 -0 -0 -0 -0 -0 -0 -0 -0 -0 -0 -0 -0 -0 -0 -0 -0 -0 -0 -0 -0 -0 -119 -178 -0 -239 -252 -281 -276 -211 -236 -272 -0 -0 -0 -0 -0 -0 -0 -0 -0 -0
-0 -0 -0 -0 -0 -0 -0 -0 -0 -0 -0 -0 -0 -0 -0 -0 -0 -0 -0 -0 -0 -0 -0 -0 -0 -0 -0 -0 -0 -0 -162 -186 -178 -223 -196 -227 -197 -169 -217 -205 -237 -0 -0 -0 -0 -0 -0 -0 -0
-0 -0 -0 -0 -0 -0 -0 -0 -0 -0 -10 -0 -0 -0 -0 -0 -0 -0 -0 -0 -0 -0 -0 -0 -0 -0 -0 -0 -0 -0 -0 -0 -57 -88 -53 -56 -68 -75 -87 -164 -39 -0 -0 -0 -0 -0 -0 -0 -6
-0 -0 -0 -0 -0 -0 -0 -0 -0 -0 -0 -0 -0 -0 -0 -0 -0 -0 -0 -0 -0 -0 -0 -0 -0 -0 -0 -0 -0 -0 -0 -0 -79 -98 -226 -141 -81 -35 -103 -54 -103 -0 -0 -0 -0 -0 -0 -7 -22
-0 -0 -0 -0 -0 -0 -0 -0 -0 -0 -0 -0 -0 -0 -0 -0 -0 -0 -0 -0 -0 -0 -0 -0 -0 -0 -0 -0 -0 -0 -0 -0 -0 -11 -10 -0 -140 -165 -89 -73 -104 -52 -0 -0 -0 -0 -0 -18 -16
Wind_Speed
4 7 5 2 5 3 5 6 27 26 18 7 10 9 18 9 7 4 9 16 16 12 9 12 15 15 15 14 14 14 14 13 13 14 13 13 12 12 12 11 11 11 11 10 10 8 8 8 8
2 6 2 2 4 2 8 8 17 16 15 10 11 14 5 4 4 16 11 16 15 12 8 10 15 15 14 14 13 13 13 13 13 13 12 12 12 11 10 10 10 10 10 10 9 8 7 6 6
5 6 2 4 3 3 5 5 3 20 28 20 9 5 9 10 6 5 18 17 15 11 9 11 14 14 14 13 13 13 14 14 13 13 12 12 11 10 9 9 9 8 9 8 7 7 6 5 4
4 3 5 2 7 12 1 3 5 1 14 17 19 11 9 11 9 13 21 18 14 11 10 12 13 14 13 13 13 13 13 13 13 13 12 12 11 10 9 9 8 7 7 6 6 5 5 3 2
2 2 2 3 9 7 14 3 3 6 5 16 20 10 10 13 19 23 21 18 15 11 9 9 12 13 13 13 12 12 12 13 13 13 13 12 11 10 10 8 7 6 6 6 5 4 4 3 2
4 2 5 4 8 11 5 7 7 12 15 9 22 15 7 13 16 19 20 18 18 15 10 8 11 11 11 11 11 11 11 11 12 12 12 12 11 11 11 10 9 8 7 6 6 5 3 3 3
3 1 5 6 9 9 11 23 7 7 8 6 15 14 7 11 12 16 18 20 19 19 16 13 10 10 11 10 10 10 10 10 10 11 10 10 10 10 10 9 9 8 7 5 4 4 4 5 5
2 3 7 4 8 6 13 14 9 10 6 7 7 5 3 4 13 14 19 20 19 16 15 13 12 13 10 8 12 11 11 10 10 10 10 10 10 10 9 9 9 8 8 7 6 6 7 7 8
3 4 3 5 6 6 10 18 14 15 4 8 7 11 6 3 5 9 13 18 16 14 16 14 12 10 11 10 10 12 14 12 11 9 9 7 3 5 7 8 10 11 9 8 8 8 8 9 9
2 2 3 4 5 8 11 11 10 14 13 7 7 7 5 3 2 4 5 12 17 17 16 13 13 12 13 10 11 8 8 6 5 5 5 4 5 5 8 9 12 10 9 9 10 10 9 8 4
8 6 6 7 3 6 11 16 9 10 9 7 6 5 5 6 8 8 7 5 14 18 15 16 14 13 13 9 7 5 4 6 5 7 6 6 4 5 5 2 4 4 7 3 6 4 4 6 5
7 10 10 10 5 5 14 9 7 7 9 5 6 6 6 9 9 8 8 9 12 10 17 14 10 8 11 8 7 6 5 5 4 6 9 5 2 3 4 3 3 4 4 5 4 3 5 6 7
7 10 11 10 7 8 5 7 9 6 9 10 4 4 7 2 5 7 7 9 10 11 8 8 8 9 9 10 5 6 6 6 6 6 7 5 5 4 4 4 4 4 3 4 3 2 3 3 5
11 12 10 9 11 3 1 9 3 9 5 8 8 4 6 3 5 1 7 7 10 9 8 7 8 7 7 6 7 5 4 2 4 4 5 5 4 5 4 1 3 2 3 3 1 3 3 4 4
7 4 6 4 7 7 3 11 9 8 9 8 3 4 4 6 8 1 7 9 8 8 9 9 9 8 8 8 6 5 5 4 4 5 3 8 9 6 6 5 4 2 2 3 4 5 4 5 6
7 4 2 7 9 11 13 11 11 9 10 9 5 2 5 8 5 7 8 9 10 7 7 5 6 7 7 5 4 3 3 4 4 4 4 9 11 7 8 3 3 1 4 5 5 4 4 5 5
6 6 9 18 16 11 10 4 12 8 8 7 6 5 5 3 14 12 11 10 8 9 7 9 7 6 6 4 1 3 3 4 7 4 4 8 10 8 6 5 3 6 5 5 3 3 3 4 5
8 8 9 14 19 16 8 6 5 4 7 8 6 5 1 10 9 10 11 11 10 10 9 9 5 6 5 2 2 2 1 4 5 6 4 6 5 6 6 4 6 6 5 4 3 4 3 2 5
15 12 7 3 4 8 8 2 6 9 4 7 8 6 13 12 8 10 13 14 13 13 12 10 8 5 4 2 2 2 2 2 4 2 5 6 6 7 7 5 6 4 5 3 5 3 4 4 3
3 5 8 4 9 7 4 8 9 8 8 7 9 7 14 11 11 12 11 12 10 11 10 13 11 9 7 4 3 4 4 3 4 3 4 5 6 6 7 6 4 5 3 5 4 3 3 2 4
4 3 7 5 4 3 2 6 11 9 8 8 8 11 13 15 13 11 13 11 11 10 11 12 11 10 9 9 4 4 4 3 2 2 2 2 7 7 7 5 4 4 4 3 3 4 4 3 3
1 7 9 10 9 2 5 6 8 5 8 10 9 10 12 13 11 12 12 9 10 8 9 9 8 8 7 10 8 7 5 2 3 2 2 4 7 6 5 5 5 4 3 4 2 3 3 2 4
3 7 5 5 6 7 10 2 9 7 9 9 9 9 9 9 12 12 11 9 9 8 8 7 7 7 7 8 7 6 5 4 6 4 5 5 4 2 5 7 6 5 3 3 4 5 6 3 2
5 5 7 5 3 3 16 8 8 3 10 7 5 9 10 17 15 9 10 14 9 8 6 5 6 4 6 6 7 6 6 5 5 4 4 4 4 5 6 6 5 4 5 5 4 4 5 5 5
4 7 5 6 2 6 11 5 10 18 22 19 20 16 13 13 12 13 10 9 11 9 9 8 8 8 8 3 4 5 5 4 3 4 3 5 4 3 3 5 6 4 4 5 5 5 5 6 5
6 4 4 2 2 5 9 7 4 14 16 15 12 9 9 8 8 9 8 8 8 6 7 6 7 5 6 10 9 4 2 1 2 3 4 2 1 2 3 4 4 5 5 6 5 3 5 6 6
7 5 3 2 5 5 4 4 8 9 8 10 9 8 7 9 9 9 8 7 7 5 7 4 5 2 4 6 3 6 5 6 4 4 2 3 3 3 1 2 2 4 5 5 6 4 6 6 6
3 3 7 5 0 3 5 7 5 13 13 13 9 12 11 9 11 12 12 11 10 10 9 10 12 13 9 8 6 3 3 5 5 4 4 6 4 3 1 3 3 4 5 6 4 6 6 6 5
5 4 4 3 3 2 3 6 7 7 4 6 11 9 12 16 14 14 13 11 12 11 10 8 9 9 11 8 7 7 6 4 2 2 3 3 6 6 3 5 4 5 5 5 7 4 8 7 7
4 2 2 6 4 1 6 7 7 13 15 15 17 15 12 10 11 11 12 14 14 13 11 8 8 8 7 5 6 6 5 6 6 5 3 3 4 3 6 5 5 4 3 3 5 7 6 8 9
Wind_Direction
308 294 159 358 36 79 261 318 101 142 172 187 144 147 160 155 170 164 149 122 122 124 130 120 121 126 128 127 125 125 126 123 117 119 120 118 113 109 108 107 106 105 103 102 104 98 86 78 73
322 310 138 272 91 0 292 79 97 115 123 129 142 133 179 124 253 117 123 126 122 134 123 121 123 125 130 130 129 131 131 128 126 128 126 125 123 121 118 115 111 111 111 113 114 109 98 88 85
289 173 74 145 209 190 256 300 91 122 140 161 119 168 153 141 176 81 120 120 123 125 122 126 124 125 129 132 132 135 136 133 134 133 132 131 129 129 127 120 113 114 117 121 122 121 118 113 109
307 32 329 96 274 281 22 329 350 355 151 135 145 78 86 126 131 126 126 126 131 123 123 125 127 129 132 134 135 137 138 139 140 140 141 139 139 141 144 139 136 131 128 125 122 115 107 107 111
237 328 317 326 288 266 265 338 321 310 62 119 112 114 94 103 125 128 133 139 131 119 118 120 130 130 132 136 138 141 144 146 145 145 146 146 147 149 152 155 154 144 138 133 130 130 134 145 173
328 92 359 326 329 321 356 360 19 39 71 54 108 119 120 135 133 146 143 133 130 127 122 131 128 129 133 138 142 144 145 146 146 149 152 154 156 158 161 165 168 164 160 157 157 159 174 210 229
201 290 260 336 359 339 340 350 44 75 52 58 123 120 143 159 158 147 143 136 140 141 146 147 145 142 140 141 145 147 149 150 152 155 159 160 163 164 168 172 174 177 173 176 187 194 212 228 241
284 79 342 15 2 322 303 350 356 64 31 59 106 113 167 160 139 146 143 144 146 149 151 156 154 149 147 151 155 154 155 156 159 163 165 166 169 170 175 181 187 188 190 196 210 221 231 239 243
288 25 340 324 351 294 321 341 349 339 50 90 100 120 151 109 147 137 147 149 150 155 155 157 154 159 156 158 164 162 162 162 166 164 167 165 165 184 188 192 201 203 202 205 220 230 237 247 255
180 176 204 243 293 350 327 310 337 350 346 32 85 81 98 133 319 77 177 170 161 161 155 154 159 175 165 165 156 163 170 161 152 158 165 182 201 188 198 209 216 201 208 214 231 235 244 261 258
239 224 227 246 278 77 296 291 337 356 345 32 36 48 73 58 11 6 337 16 177 157 160 165 174 175 170 154 158 165 172 167 169 169 171 201 206 213 210 178 172 194 214 230 241 226 223 235 241
196 236 243 250 189 192 218 300 328 325 293 41 59 88 55 12 357 345 354 46 76 107 152 160 162 138 132 142 174 165 166 176 161 176 184 194 191 176 140 123 164 197 198 204 234 192 213 235 253
232 220 217 239 254 191 249 279 269 276 299 323 29 69 110 41 306 310 309 95 106 104 125 130 119 117 138 152 169 161 165 183 170 178 196 163 155 116 116 145 170 201 195 198 218 216 246 275 301
259 281 188 209 237 213 232 259 310 288 291 297 330 52 34 1 292 221 50 56 113 118 124 123 121 116 109 102 107 121 151 132 146 94 86 348 79 30 3 308 203 191 179 239 243 267 316 327 349
270 318 299 210 188 219 256 306 280 267 247 210 118 63 22 333 326 243 120 89 135 129 132 123 133 122 119 107 124 134 145 126 109 120 141 101 87 94 255 231 327 109 120 94 39 29 32 16 357
307 12 318 254 240 228 160 230 268 277 269 147 155 299 267 253 240 38 93 100 86 116 111 131 115 118 111 110 128 147 150 139 140 108 146 129 150 179 221 172 179 102 54 51 57 26 10 358 2
318 240 257 269 236 226 155 156 254 245 135 163 199 227 262 321 50 48 52 48 58 73 54 51 92 109 118 123 146 168 174 145 91 100 124 149 179 189 210 137 117 70 52 58 33 19 38 344 327
246 249 257 256 261 204 143 196 279 260 170 189 180 207 205 95 76 58 51 47 44 41 48 24 70 142 126 115 323 335 278 82 119 141 152 152 140 157 90 73 56 58 60 32 21 15 355 325 295
245 275 278 319 95 97 160 182 272 287 189 202 198 194 110 106 91 68 58 49 39 30 24 12 11 130 96 34 330 356 291 88 99 98 140 134 97 76 80 71 70 63 62 28 12 6 354 319 318
307 326 313 352 44 61 62 273 246 245 255 174 151 128 111 98 80 71 64 60 50 38 35 34 23 32 34 13 350 19 85 40 109 126 109 112 107 96 85 80 70 63 55 26 26 23 328 305 3
295 356 5 12 20 15 268 288 285 272 212 107 96 100 104 107 101 90 77 73 64 49 38 42 32 38 30 4 9 29 53 6 353 105 32 140 118 102 105 111 102 83 76 31 359 18 36 312 308
332 24 15 357 13 293 56 279 288 295 96 103 98 96 115 118 116 111 107 106 107 94 73 49 40 38 40 43 44 52 7 8 306 77 211 84 89 109 128 128 113 98 80 43 353 352 333 6 318
107 40 343 304 307 359 291 17 263 132 114 111 128 130 124 140 117 117 124 127 116 116 105 90 67 50 47 56 53 50 33 338 22 10 17 33 10 52 60 82 78 61 38 10 6 354 325 308 292
320 342 318 264 161 307 261 175 309 126 142 130 124 104 81 82 76 50 68 62 53 48 61 97 101 87 71 67 72 68 55 21 22 345 344 352 13 47 42 53 49 33 25 12 336 324 318 299 286
3 46 334 357 75 208 332 48 18 58 68 78 76 75 74 76 74 73 75 73 73 72 78 59 42 30 351 21 105 98 110 109 74 64 26 21 3 352 13 37 29 22 359 342 325 315 304 287 275
306 110 127 319 40 275 313 35 38 65 85 86 79 86 75 69 81 89 90 78 68 59 48 82 91 70 65 56 349 354 104 97 117 140 138 129 322 331 30 19 12 3 343 318 307 302 283 277 273
324 62 270 16 328 46 119 61 33 43 71 57 58 64 77 58 55 66 51 53 63 44 33 44 347 7 76 107 126 84 355 322 242 236 221 191 201 197 269 0 355 319 306 300 299 285 281 272 274
190 276 24 356 138 289 319 56 114 39 47 29 10 57 43 41 43 35 37 32 23 22 36 36 25 12 357 348 357 336 120 120 3 306 302 287 263 253 239 252 266 287 309 294 303 305 283 291 289
15 19 12 93 93 156 341 282 95 45 31 75 73 63 43 43 26 25 25 24 15 12 20 26 30 14 2 1 1 2 349 360 5 74 83 300 337 334 331 307 302 285 286 326 302 341 324 320 310
73 10 89 112 304 181 163 267 356 6 57 48 43 45 39 37 28 20 16 10 2 1 4 4 8 356 344 358 350 339 353 359 354 343 323 328 320 347 318 301 288 277 304 353 334 340 325 318 309